Torna al catalogo

DELTA 1 DEB

AttivoLEO
NORAD 3127·DEBRIS·🇺🇸 United States

Lanciato Jan 11, 1968 da Vandenberg Space Force Base

Loading…

Prossimi Passaggi (prossime 24 ore)

TLE

AggiornatoSource: Space-Track

Epoca: Sep 14, 2026, 05:56 UTC

1 03127U 68002D   26257.24769367 -.00000066  00000-0  19608-4 0  9996
2 03127 105.3355  78.0704 0321070 155.1572  21.5076 12.84897535750401

Traccia DELTA 1 DEB in tempo reale con AllMySat

Download on the App Store